Regional Weather Roundup
Issued by NWS

Home | Current Version | Previous Version | Text Only | Print | Product List | Glossary Off
Versions: 1 2 3 4 5 6 7 8 9 10 11 12 13 14 15 16 17 18 19 20 21 22 23 24 25 26 27 28 29 30 31 32 33 34 35 36 37 38 39 40 41 42 43 44 45 46 47 48 49 50

662
ASUS45 KBOU 120207
RWRCO

WEATHER ROUNDUP FOR COLORADO
NATIONAL WEATHER SERVICE DENVER/BOULDER CO
700 PM MST THU FEB 11 2016

NOTE: "FAIR" INDICATES FEW OR NO CLOUDS BELOW 12000 FEET WITH NO
SIGNIFICANT WEATHER AND/OR OBSTRUCTIONS TO VISIBILITY.

COZ001>005-013-030-031-120300-
...NORTHWEST COLORADO...

CITY           SKY/WX    TMP DP  RH WIND       PRES   REMARKS
CRAIG          CLOUDY    17  12  80 SW3       30.39R
HAYDEN         CLOUDY    27  16  63 E5        30.39R WCI  21
MEEKER         CLOUDY    23  17  78 NE6       30.38R WCI  16
MOUNT WERNER   NOT AVBL
STEAMBOAT SPGS CLOUDY    27  17  65 CALM      30.39R
WALDEN         CLOUDY    30  16  55 E9        30.39R WCI  22
$$

COZ006>008-011-120300-
...WEST CENTRAL VALLEYS...

CITY           SKY/WX    TMP DP  RH WIND       PRES   REMARKS
GRAND JUNCTION CLOUDY    31  28  89 CALM      30.39R
MONTROSE       CLOUDY    35  25  66 SE3       30.40R
EAGLE          CLEAR     32  19  59 SE3       30.40R
RIFLE          CLOUDY    32  20  61 CALM      30.40R
DELTA          CLOUDY    37  30  75 NE6       30.39R
NUCLA          CLOUDY    43  19  39 SE3       30.41S
$$

COZ017>023-064>068-120300-
...SOUTHWEST COLORADO...

CITY           SKY/WX    TMP DP  RH WIND       PRES   REMARKS
DURANGO        CLOUDY    37  20  50 N3        30.37R
CORTEZ         CLOUDY    32  25  75 NE7       30.37R WCI  26
PAGOSA SPRINGS CLOUDY    34  22  63 CALM      30.39R
TELLURIDE      CLOUDY    37  11  33 CALM      30.47R
WOLF CREEK PAS CLOUDY    32   0  25 NW8       30.55S WCI  25
$$

COZ009-010-012-014-032>034-037-058>063-120300-
...CENTRAL COLORADO...

CITY           SKY/WX    TMP DP  RH WIND       PRES   REMARKS
ASPEN          CLOUDY    30  18  60 S8        30.41R WCI  22
BUENA VISTA    CLOUDY    39  20  47 NW6       30.36R
COPPER MTN     CLOUDY    32  12  43 W17G24    30.49S WCI  21
BERTHOUD PASS  FAIR      21  10  63 NW43G49   30.40F WCI   0
COTTONWOOD PAS CLOUDY    43  12  28 W14G22    30.42R
GUNNISON       CLOUDY    10   9  92 CALM      30.48R
KREMMLING      CLOUDY    14   9  79 CALM      30.43R
LEADVILLE      CLOUDY    29  11  47 CALM      30.42R
MONARCH PASS   CLOUDY    27   5  39 SW14      30.59R WCI  15
SALIDA         NOT AVBL
SUNLIGHT       CLOUDY    34   9  35 CALM      30.51F
WILKERSON PASS CLOUDY    32  14  47 N16G25    30.47F WCI  21
$$

COZ069>075-120300-
...SAN LUIS VALLEY/SANGRE DE CRISTO MOUNTAINS...

CITY           SKY/WX    TMP DP  RH WIND       PRES   REMARKS
ALAMOSA        CLOUDY    35  20  54 W7        30.36R WCI  29
LA VETA PASS   CLOUDY    34  10  37 MISG      30.42R
SAGUACHE       CLOUDY    30  23  74 NW5       30.40R WCI  25
$$

COZ035-036-038>040-120300-
...NORTHERN COLORADO FRONT RANGE...

CITY           SKY/WX    TMP DP  RH WIND       PRES   REMARKS
DENVER INTL AP CLOUDY    40  27  59 SE14      30.24R
DMNS CITY PARK   N/A     46  23  40 E8G20     30.25R
AURORA         MOCLDY    39  28  64 SE13      30.26R
FRONT RANGE AP MOCLDY    37  28  70 SE12      30.26R
ERIE MUNI ARPT CLOUDY    47  26  42 SE15G22   30.23R
BOULDER MUN AP CLOUDY    48  28  46 N3        30.24R
CENTENNIAL     CLOUDY    44  27  51 SE9       30.26R
BROOMFIELD     MOCLDY    48  25  40 E6        30.25R
FORT COLLINS   CLOUDY    43  28  56 S7        30.25R
LONGMONT       CLOUDY    45  29  54 NW5       30.25R
$$

COZ041-046-047-076>085-087-088-120300-
...PIKES PEAK/PALMER DIVIDE AND SOUTHERN FOOTHILLS...

CITY           SKY/WX    TMP DP  RH WIND       PRES   REMARKS
COLO. SPRINGS  PTCLDY    43  25  49 NE20      30.25R
A. F. ACADEMY  CLOUDY    43  23  44 N12       30.26R
SCHRIEVER AFB  FAIR      40  26  57 N14G23    30.25R
ELLICOTT       CLEAR    N/A N/A N/A E15       30.24R
FALCON         CLEAR     37  25  60 N12G17    30.28R
FORT CARSON    CLEAR     45  24  43 N9        30.24R
LIMON          CLOUDY    31  27  85 NW6       30.25R WCI  25
MONUMENT HILL  CLOUDY    34  25  69 E8        30.31R WCI  27
TRINIDAD       CLEAR     47  13  25 W8        30.20R
$$

COZ042>045-048>051-090-091-120300-
...NORTHEAST COLORADO...

CITY           SKY/WX    TMP DP  RH WIND       PRES   REMARKS
GREELEY ARPT   CLOUDY    39  28  65 SW7       30.24R
AKRON          CLOUDY    38  27  64 N8        30.22R
BURLINGTON     CLOUDY    37  28  70 W10       30.22R
WRAY           NOT AVBL
STERLING       CLOUDY    39  32  75 N10       30.21R
HOLYOKE        CLOUDY    46  30  53 NW9       30.19R
FORT MORGAN    CLOUDY    44  25  47 N15G24    30.22R
$$

COZ086-089-092>099-120300-
...SOUTHEAST COLORADO...

CITY           SKY/WX    TMP DP  RH WIND       PRES   REMARKS
PUEBLO         CLEAR     52  27  38 NE12      30.20R
LA JUNTA       CLEAR     47  27  45 NE7       30.18R
LAMAR          CLEAR     50  26  39 NE9       30.16R
SPRINGFIELD      N/A     42  21  43 N10       30.17R
$$




USA.gov is the U.S. government's official web portal to all federal, state and local government web resources and services.